This is the latest recevied weather packets stored in our database for station/object WV5G-13. If no packets are shown the sender has not sent any weather packets the latest 10 day(s).
| Time | Temp. | Humidity | Pressure | Rain* | Wind** | Luminosity | Snow |
|---|---|---|---|---|---|---|---|
| 1777948245 | 25° C | 15% | 1001.6 hPa | 0 mm | - | 0 W/m² | - |
| 1777947943 | 25° C | 15% | 1001.4 hPa | 0 mm | - | 0 W/m² | - |
| 1777947640 | 25.56° C | 15% | 1001.4 hPa | 0 mm | - | 0 W/m² | - |
| 1777947336 | 25.56° C | 14% | 1001.4 hPa | 0 mm | - | 0 W/m² | - |
| 1777947033 | 25.56° C | 14% | 1001.6 hPa | 0 mm | - | 0 W/m² | - |
| 1777946727 | 25.56° C | 14% | 1001.4 hPa | 0 mm | - | 0 W/m² | - |
| 1777946424 | 25.56° C | 14% | 1001.6 hPa | 0 mm | - | 0 W/m² | - |
| 1777946121 | 26.11° C | 14% | 1001.4 hPa | 0 mm | - | 0 W/m² | - |
| 1777945818 | 26.11° C | 14% | 1001.2 hPa | 0 mm | - | 0 W/m² | - |
| 1777945515 | 26.11° C | 14% | 1001.2 hPa | 0 mm | - | 0 W/m² | - |
| 1777945213 | 26.11° C | 14% | 1001.1 hPa | 0 mm | - | 1 W/m² | - |
| 1777944909 | 26.11° C | 15% | 1001.3 hPa | 0 mm | - | 2 W/m² | - |
| 1777944607 | 26.11° C | 14% | 1001.3 hPa | 0 mm | - | 3 W/m² | - |
| 1777944305 | 26.67° C | 14% | 1001.2 hPa | 0 mm | - | 5 W/m² | - |
| 1777944001 | 26.67° C | 13% | 1001.2 hPa | 0 mm | - | 9 W/m² | - |
| 1777943697 | 26.67° C | 13% | 1001.1 hPa | 0 mm | - | 12 W/m² | - |
| 1777943394 | 26.67° C | 13% | 1001.1 hPa | 0 mm | - | 17 W/m² | - |
| 1777943090 | 27.22° C | 14% | 1000.9 hPa | 0 mm | - | 21 W/m² | - |
| 1777942786 | 27.22° C | 13% | 1001 hPa | 0 mm | - | 26 W/m² | - |
| 1777942483 | 27.22° C | 13% | 1001.1 hPa | 0 mm | - | 34 W/m² | - |
| 1777942181 | 27.78° C | 13% | 1001.1 hPa | 0 mm | - | 40 W/m² | - |
| 1777941877 | 27.78° C | 13% | 1001 hPa | 0 mm | - | 47 W/m² | - |
| 1777941574 | 27.78° C | 13% | 1001.1 hPa | 0 mm | - | 52 W/m² | - |
| 1777941271 | 27.78° C | 13% | 1001.2 hPa | 0 mm | - | 58 W/m² | - |
| 1777940967 | 27.78° C | 13% | 1001.1 hPa | 0 mm | - | 66 W/m² | - |
* Rain latest hour (hover to see other rain measurements)
** Current wind speed in m/s (hover to see current wind gust speed)